GFSSGP_sfc_dewp_078.txt.gz
Dewpoint
72 69 69 68 63 56 35 38 42 44 45 47 49 48 54 54 52 54 61 64 64 63 69 71 77 76 76 76 76 76 75 74 74 74 74 73 73 73 73 73 72 73 73 73 73 73 73 73 72
67 67 67 64 58 33 35 40 42 47 47 45 49 50 53 54 56 58 60 65 64 64 64 69 77 77 76 76 76 76 75 74 74 75 74 73 72 73 74 73 73 73 73 73 74 73 72 72 72
69 69 62 60 34 33 37 41 42 43 45 46 49 51 52 53 56 58 60 64 64 63 63 73 76 76 75 76 76 76 76 75 75 75 74 73 73 73 72 73 73 74 73 73 73 72 72 71 72
68 66 63 45 31 35 37 35 37 41 44 45 51 51 54 55 56 60 60 63 62 63 68 75 77 75 75 75 75 75 75 75 74 74 74 73 73 73 72 72 73 73 73 73 73 72 71 72 72
64 60 54 33 33 37 38 34 38 39 43 44 50 52 55 58 60 61 60 60 65 66 69 71 77 76 76 75 76 76 75 75 75 74 74 73 74 73 72 73 73 73 73 73 73 71 73 72 73
60 56 50 31 33 36 38 35 37 40 43 46 49 53 56 59 59 60 59 64 64 68 69 71 76 76 76 75 74 75 75 75 74 74 73 72 73 72 72 72 72 73 73 73 73 72 73 73 73
57 57 41 36 34 37 37 36 34 33 39 44 47 51 56 57 60 60 61 63 67 67 70 72 72 74 75 75 75 75 75 74 74 74 74 74 73 73 72 73 72 73 73 73 73 73 72 73 73
51 46 47 39 39 36 39 38 37 33 41 47 49 51 54 58 59 60 61 63 63 69 70 71 74 74 74 73 75 75 74 74 74 74 74 73 73 73 73 74 75 73 73 73 72 72 74 73 72
47 45 41 32 32 42 40 43 43 44 43 43 46 50 54 58 59 60 61 62 64 68 69 70 72 75 76 75 74 76 75 74 74 74 74 73 72 72 71 74 75 74 74 73 73 73 74 73 73
41 41 40 30 31 39 40 39 42 58 49 46 48 53 56 58 60 61 62 61 62 62 67 69 71 72 74 71 76 74 73 72 73 73 75 73 73 73 71 74 74 73 74 74 73 74 74 74 70
31 35 27 28 30 31 42 39 43 51 51 48 49 53 55 58 60 61 61 61 63 64 64 70 70 73 70 71 75 73 73 74 75 75 74 75 75 75 72 73 72 73 74 72 73 73 71 71 70
27 28 29 26 26 27 31 34 38 38 44 44 50 53 54 57 59 60 61 62 62 65 65 65 70 74 74 73 73 72 72 74 73 74 70 75 73 74 74 72 74 73 73 71 72 70 71 70 71
27 27 27 27 27 26 31 31 33 36 42 44 50 52 54 55 58 60 60 61 63 66 67 69 73 76 76 78 77 74 72 73 73 74 69 74 75 74 74 73 74 72 72 74 75 72 73 73 70
26 28 27 26 27 28 31 31 32 35 40 45 48 51 53 54 56 58 60 62 63 66 68 71 73 76 76 76 77 77 77 76 74 73 69 72 74 74 74 74 74 75 75 75 76 74 73 72 72
25 24 25 26 26 28 34 31 31 37 40 45 47 51 54 56 55 58 61 64 64 67 68 72 74 75 76 77 78 77 77 77 76 74 73 71 72 72 74 74 76 75 76 76 77 74 74 73 72
24 23 20 22 24 32 32 34 38 39 40 44 47 49 52 55 55 58 61 65 67 67 71 72 71 74 76 77 78 75 76 75 74 75 76 72 71 72 74 74 73 74 75 76 76 75 73 72 73
21 20 20 21 31 34 34 32 37 38 37 44 47 51 51 54 58 61 60 62 66 70 73 74 75 74 76 77 77 75 73 73 74 75 74 75 72 72 73 74 73 74 74 75 75 74 74 73 72
17 18 19 21 31 33 32 27 34 35 34 37 42 52 54 53 55 58 60 61 65 71 73 75 75 77 78 77 78 76 72 74 76 74 74 76 74 72 73 72 73 74 72 71 74 74 73 73 72
14 14 16 20 20 23 23 24 25 28 24 25 42 50 54 54 56 57 59 62 65 69 74 76 77 78 78 77 75 73 70 74 75 74 74 75 75 73 72 72 72 74 72 72 73 72 72 71 72
13 13 15 17 18 19 18 19 22 24 27 26 26 42 49 52 56 58 62 62 64 69 74 77 77 78 78 78 73 72 73 72 75 76 74 74 74 74 72 71 72 73 73 72 70 70 71 73 73
11 14 18 16 15 15 17 18 25 24 28 27 27 31 44 50 54 59 62 63 63 69 73 76 77 79 79 78 74 73 72 75 75 74 72 72 74 74 73 73 72 72 71 69 69 70 69 67 72
8 12 11 10 11 9 12 11 32 26 31 27 26 31 31 50 55 61 62 64 63 68 73 77 78 79 78 78 74 73 72 72 75 73 71 72 73 74 74 73 72 72 70 71 71 72 71 70 69
10 10 9 9 10 11 12 10 20 33 35 26 30 34 35 42 51 58 62 64 65 68 74 76 78 76 76 77 76 74 74 73 73 75 72 74 76 74 72 73 73 74 74 73 72 72 72 72 71
8 10 10 12 9 12 17 12 16 19 34 35 34 39 39 38 40 54 62 66 66 73 74 75 73 72 73 75 75 75 74 75 74 74 72 75 76 75 72 72 74 74 74 74 73 73 73 71 71
10 9 9 12 11 11 18 13 23 24 33 33 32 35 36 40 42 53 63 66 71 73 73 71 72 71 71 72 73 74 74 75 75 75 75 74 75 75 73 71 71 74 74 74 73 73 72 72 72
12 11 9 18 12 13 24 19 21 27 29 28 24 29 38 40 46 54 64 68 72 70 70 68 70 70 73 73 74 75 76 74 77 75 75 75 73 71 73 71 71 71 72 72 72 72 73 72 72
13 15 8 12 15 11 13 21 28 33 24 23 25 41 43 51 51 57 68 70 71 71 70 69 70 72 73 72 74 75 76 75 76 75 75 72 74 71 71 70 70 71 71 71 72 72 71 71 72
12 10 13 14 21 20 15 24 29 36 26 44 49 50 55 56 54 65 68 70 70 69 70 70 70 71 72 71 73 75 74 75 75 75 74 72 72 71 70 70 70 70 68 68 70 71 71 70 71
12 11 12 9 18 15 17 24 38 41 44 51 53 55 57 59 58 61 64 66 67 67 69 69 70 71 71 71 73 75 74 74 73 73 72 71 72 71 70 70 71 70 70 70 70 70 70 69 70
13 14 15 15 26 21 24 24 32 38 43 50 53 55 58 60 61 63 64 66 65 67 69 70 71 71 71 74 74 73 73 72 72 72 72 72 71 71 71 70 70 68 68 68 68 67 69 69 69

GFSSGP_sfc_dewp_084.txt.gz
Dewpoint
74 73 72 68 62 60 42 43 46 50 52 54 54 55 54 52 51 52 66 71 74 75 76 76 78 78 77 77 76 75 75 74 74 74 74 73 74 74 74 74 74 74 73 73 74 74 72 72 73
73 71 70 66 59 39 40 45 45 50 54 55 57 58 58 59 62 64 68 72 74 75 75 76 78 78 77 77 76 75 74 74 74 74 74 74 74 74 74 74 74 74 74 74 74 74 72 72 74
69 68 65 63 59 38 40 44 48 50 53 52 53 56 58 61 63 63 67 71 73 73 75 76 78 77 77 77 77 76 75 75 75 75 74 74 74 74 74 74 74 74 74 74 73 72 72 72 73
67 71 67 60 49 37 40 42 50 50 52 53 55 56 59 63 63 64 68 70 70 72 74 77 78 76 76 76 76 76 75 76 75 75 74 74 74 74 74 74 74 74 74 74 73 72 72 73 73
64 66 59 57 48 36 39 43 50 50 52 54 57 57 58 62 64 65 67 67 69 71 74 75 77 78 77 77 76 76 76 76 75 74 74 74 74 74 74 74 74 73 74 74 72 71 71 72 72
62 62 56 46 39 35 42 43 47 51 54 56 57 57 58 63 63 64 65 65 69 71 74 74 76 77 76 76 75 75 75 75 75 76 75 75 74 74 74 74 74 74 74 74 72 72 72 73 72
62 62 56 47 39 36 37 41 43 49 54 55 57 56 58 59 62 64 64 69 70 72 73 74 74 74 76 76 76 76 76 76 75 74 74 74 74 74 74 74 74 74 74 74 73 74 73 74 73
65 61 52 42 40 39 35 45 43 45 50 57 58 56 56 58 62 67 68 69 70 72 73 74 74 74 73 74 76 76 76 75 75 75 74 74 73 74 74 75 75 74 74 74 74 73 74 74 74
58 51 50 47 41 41 44 44 48 49 50 54 56 57 58 60 62 65 68 68 68 69 72 73 73 73 73 74 74 76 75 75 75 74 74 74 72 73 72 74 74 74 74 74 73 74 74 74 74
52 47 47 48 44 42 44 42 44 46 50 55 58 58 59 59 60 65 68 68 68 69 70 71 72 73 73 73 73 74 73 73 73 73 72 72 72 72 73 74 74 74 74 74 74 74 74 73 71
44 45 41 34 39 42 44 46 45 45 48 54 56 57 58 59 59 63 67 68 68 69 70 71 72 72 72 72 73 73 73 73 73 73 73 72 73 71 72 72 72 73 74 72 74 74 74 73 71
33 29 26 27 31 38 45 48 47 46 46 55 58 58 58 58 59 60 61 66 68 69 70 71 72 72 72 72 73 73 72 72 72 72 73 73 71 70 70 71 72 72 72 72 72 72 72 72 72
30 25 24 22 26 28 49 49 46 47 49 56 58 58 58 58 59 60 62 62 67 68 69 70 71 72 72 73 73 72 72 72 72 72 71 72 70 70 70 71 71 72 72 72 71 71 72 71 71
30 23 19 20 25 27 36 35 45 48 50 55 56 57 58 58 60 61 62 62 63 67 68 70 70 71 71 72 72 73 72 73 72 71 68 70 70 70 69 70 70 71 72 71 71 71 71 70 70
21 18 19 19 25 25 25 26 33 48 49 54 55 56 58 59 60 61 62 62 62 63 68 68 70 71 71 72 72 73 73 73 72 72 69 67 70 70 69 69 70 70 71 71 71 71 70 70 70
20 20 18 20 23 23 26 23 38 49 50 52 54 55 57 59 60 61 62 62 63 64 68 69 69 71 71 71 73 73 73 72 73 72 71 69 68 68 68 68 69 70 71 71 70 70 70 69 69
20 18 19 19 21 22 23 32 38 46 50 52 52 54 56 57 59 60 61 61 63 65 68 69 70 70 72 73 73 72 72 71 71 71 72 71 70 68 68 68 69 70 70 70 71 70 69 68 68
17 17 18 19 18 18 24 33 37 41 49 51 52 53 54 55 57 58 61 61 63 67 68 69 71 71 73 74 72 71 70 69 67 69 70 72 71 70 69 69 69 69 70 70 70 69 70 69 68
19 18 18 18 18 19 16 24 36 39 43 48 51 52 53 54 55 58 60 63 64 68 68 69 71 72 73 72 71 69 68 68 68 71 72 72 72 71 70 69 69 69 69 69 70 69 69 69 69
16 15 15 15 15 18 17 17 21 27 36 37 45 50 52 53 54 57 61 64 65 68 68 70 71 73 73 73 72 70 68 67 67 69 71 73 73 71 70 69 69 68 69 68 69 67 67 68 69
16 14 14 13 14 16 20 16 16 19 24 25 32 45 51 53 54 57 59 65 65 67 68 69 71 73 74 72 70 68 68 68 69 70 70 73 72 72 70 70 69 68 69 69 68 67 66 65 67
15 16 14 12 13 12 15 12 16 15 18 25 27 47 50 52 54 58 58 64 66 67 68 69 73 74 74 71 69 66 64 63 66 69 70 71 73 72 71 70 69 69 69 68 68 67 66 66 65
15 15 13 13 12 12 11 11 15 20 19 33 38 43 51 52 54 57 58 62 67 68 68 71 74 75 73 71 70 68 66 67 69 69 70 70 71 72 71 70 70 69 69 68 67 67 66 66 66
18 17 16 16 11 7 10 13 10 15 19 34 40 51 52 52 54 55 58 63 68 70 70 74 74 74 74 72 70 69 70 69 70 68 70 69 70 70 70 71 70 69 68 68 68 68 68 67 67
21 12 11 11 8 10 10 13 13 17 24 36 39 50 53 53 53 58 60 64 70 71 73 72 72 69 72 72 72 72 72 70 69 68 68 68 68 68 69 70 70 70 70 69 69 68 68 68 67
16 11 12 6 9 11 15 14 14 22 20 32 39 42 43 50 54 59 62 67 70 73 71 70 68 67 68 69 68 70 70 69 70 70 69 69 68 68 68 68 68 69 70 70 70 69 68 68 68
14 14 13 10 14 11 14 12 25 34 34 36 35 41 49 57 59 61 64 70 72 70 69 68 66 66 67 68 69 71 68 69 70 70 70 69 68 68 68 68 68 68 68 70 68 68 67 67 67
15 16 10 13 14 9 16 18 28 38 37 44 46 52 59 61 63 69 71 71 69 68 66 66 67 68 68 70 71 68 67 70 70 70 69 68 68 68 67 67 67 68 68 68 67 66 66 66 67
15 15 14 11 15 11 14 22 35 47 49 51 54 63 63 66 69 69 69 68 67 67 66 67 68 68 69 70 70 70 70 70 71 70 68 68 67 66 66 66 67 67 67 66 66 66 67 66 65
14 13 14 11 9 20 19 19 48 42 54 55 58 63 67 68 69 69 68 68 66 66 66 66 68 69 69 69 69 70 71 70 69 69 68 68 67 66 65 66 66 66 66 65 64 64 66 65 65

GFSSGP_sfc_dewp_087.txt.gz
Dewpoint
73 73 71 68 60 58 41 46 52 51 52 55 54 52 50 54 52 51 66 71 73 74 75 76 78 77 76 75 75 75 74 74 74 73 73 74 74 74 74 74 74 74 74 73 74 73 72 73 73
73 71 70 66 58 40 41 46 50 53 54 58 58 58 58 59 63 66 68 73 73 75 75 75 78 77 77 76 75 75 74 74 74 74 73 74 74 74 74 74 74 73 73 74 74 72 72 74 72
72 69 65 63 58 39 41 47 52 54 56 55 55 57 60 61 64 66 70 73 74 75 75 75 77 77 76 76 75 75 74 74 74 74 73 74 74 74 74 73 74 74 74 74 73 72 72 74 73
68 71 67 59 55 44 41 48 53 53 53 56 57 57 59 64 64 65 71 73 73 74 75 77 77 76 76 76 75 75 74 75 75 74 74 74 74 74 73 74 74 73 74 74 72 72 73 73 73
64 64 55 54 53 40 41 50 50 51 52 56 58 57 58 63 65 69 71 71 72 74 75 76 78 77 77 75 75 75 75 75 75 74 74 74 73 74 75 74 74 73 74 73 72 71 73 73 73
61 62 50 44 45 37 43 51 51 52 55 57 57 57 58 64 66 68 69 69 71 73 75 75 77 77 76 76 75 75 75 75 75 74 74 74 74 74 74 74 74 73 74 72 72 71 72 72 72
61 60 54 52 40 38 41 45 51 53 56 56 57 56 59 63 65 67 67 68 70 73 74 74 75 75 76 76 76 76 75 75 75 76 75 74 74 74 74 74 75 74 73 73 72 72 72 72 72
63 59 52 50 43 41 38 41 50 54 55 58 58 56 58 62 64 65 66 69 69 72 73 73 74 73 73 73 75 75 75 75 75 74 73 74 74 73 73 75 75 74 73 74 73 74 73 74 73
64 54 52 51 49 44 42 44 47 51 56 57 57 58 59 62 64 66 68 69 70 71 72 73 73 73 73 74 75 76 75 75 75 74 74 73 72 72 72 73 74 74 74 74 73 73 74 74 74
56 50 51 51 50 47 41 44 45 50 54 55 57 58 60 64 64 66 66 66 67 68 72 73 73 73 73 73 73 74 73 73 73 73 73 72 72 72 73 74 74 74 74 74 74 74 74 73 72
53 50 48 44 41 38 41 43 45 48 52 55 55 57 60 64 65 66 66 66 66 67 70 72 72 73 73 72 73 73 73 73 72 72 73 72 72 72 72 72 73 73 74 72 73 73 73 73 71
38 41 34 25 25 27 43 43 44 48 47 53 57 57 59 61 64 66 66 67 67 67 68 70 71 72 72 72 73 73 73 72 72 72 72 72 71 70 70 70 71 71 72 72 72 72 73 72 72
36 32 26 21 20 25 42 45 44 45 51 57 58 57 58 59 63 66 67 68 68 68 68 70 71 71 71 72 72 72 72 72 72 72 72 72 71 70 69 70 71 71 72 72 71 71 71 71 71
38 29 21 20 20 27 46 47 46 47 56 57 57 58 58 58 59 63 66 67 68 68 69 70 71 71 71 71 73 72 72 73 72 72 71 71 71 69 69 70 70 71 71 71 71 71 71 71 71
25 19 20 20 24 27 33 36 46 48 56 57 57 57 58 59 59 60 62 64 67 68 69 70 71 71 71 71 72 73 73 73 72 71 70 69 70 69 68 68 69 70 71 71 70 70 70 70 70
21 20 18 21 21 22 23 21 22 41 54 55 56 57 58 59 59 60 61 62 65 67 68 70 70 70 71 71 72 73 73 73 72 71 70 68 68 69 68 68 68 69 70 70 70 69 69 69 69
18 17 17 19 22 23 21 19 21 48 51 53 55 56 57 58 59 61 62 62 63 64 67 69 70 70 70 71 72 72 72 71 72 71 71 70 68 67 67 67 68 69 70 70 69 69 69 68 68
20 16 17 19 19 18 17 17 18 49 49 51 53 55 56 57 58 60 62 62 63 64 66 68 69 70 70 72 71 70 70 70 70 70 70 71 70 70 68 67 67 69 69 69 69 68 69 68 67
19 18 18 19 19 21 16 17 17 38 49 50 51 54 55 56 58 59 62 62 63 64 67 68 69 70 71 71 70 68 68 68 68 67 68 70 71 71 70 68 68 68 68 69 69 68 68 68 67
19 17 16 17 17 16 16 17 19 34 47 49 51 52 53 54 56 58 61 62 63 64 66 68 69 69 70 71 71 69 68 67 67 68 69 71 72 71 70 69 68 68 68 68 68 68 66 67 68
19 15 15 15 16 15 16 17 15 17 25 36 49 52 53 53 54 56 59 62 63 64 66 68 69 70 70 72 70 68 68 68 68 69 69 70 72 71 70 70 68 68 68 68 68 67 67 65 66
22 21 18 17 18 13 16 11 15 14 17 20 25 46 51 52 54 56 59 62 63 64 66 68 69 71 72 72 70 67 67 67 67 68 69 70 72 71 70 70 69 68 68 68 68 68 66 65 64
21 21 18 18 15 12 13 10 13 16 13 14 21 34 42 51 53 56 58 62 63 64 66 68 70 72 73 72 71 68 66 66 66 67 68 68 71 71 71 70 69 68 68 68 68 67 66 66 64
21 20 16 15 11 9 10 10 11 12 11 20 34 39 46 49 53 56 58 62 64 66 67 70 72 73 72 71 70 68 67 67 67 68 68 68 69 69 70 70 69 68 68 68 67 67 67 65 65
17 14 14 13 10 11 10 12 13 17 17 23 23 33 51 52 53 57 59 64 65 67 68 71 72 72 71 71 69 69 70 69 69 68 67 66 66 67 69 69 69 68 68 68 67 67 67 67 67
16 14 15 10 11 12 14 11 13 16 17 21 25 36 53 52 53 57 60 65 67 67 70 71 72 71 72 71 70 69 68 67 66 69 69 67 67 68 67 67 69 70 70 69 69 68 67 67 68
16 14 15 11 12 11 13 14 19 24 33 35 30 48 53 53 54 59 62 67 68 69 71 71 70 69 70 69 68 67 65 65 65 64 70 68 68 68 68 67 68 69 70 69 69 69 68 68 68
13 15 12 13 14 12 12 15 18 23 38 44 40 45 52 57 60 62 65 70 71 71 69 68 68 67 67 67 68 66 64 65 65 68 69 69 68 67 67 67 67 67 67 68 68 67 67 67 66
16 15 16 13 12 10 11 15 25 37 50 55 64 65 66 68 68 70 70 70 69 67 68 66 66 67 68 69 69 66 66 67 68 69 69 68 67 66 66 66 66 66 66 67 67 67 66 65 65
16 14 14 16 12 18 16 15 47 47 54 62 65 67 68 68 68 68 67 67 67 66 67 66 66 67 68 68 69 69 69 70 70 69 68 67 66 66 65 65 65 65 66 65 65 65 66 65 64

GFSSGP_sfc_dewp_093.txt.gz
Dewpoint
72 70 71 69 59 53 43 44 51 50 51 54 52 52 50 52 49 49 67 68 68 69 72 72 75 75 74 75 75 75 75 74 75 75 74 74 74 74 74 74 74 74 74 73 72 74 73 73 73
70 71 69 66 56 38 38 46 48 51 54 55 54 54 55 54 62 66 66 70 68 70 71 71 75 75 75 75 74 75 74 73 73 74 74 75 74 74 74 74 74 74 74 73 72 73 72 71 73
70 70 65 62 57 40 39 46 50 54 54 54 54 57 56 58 64 65 69 69 70 71 70 72 76 75 75 76 76 75 74 74 73 74 74 75 74 74 74 74 74 74 74 72 71 72 73 72 73
68 69 66 59 46 49 43 47 52 54 55 55 56 55 60 64 64 66 70 70 71 71 70 75 78 77 76 75 76 76 75 74 73 74 74 73 74 73 74 74 73 74 74 72 72 73 72 73 72
65 64 54 45 44 46 41 49 53 52 53 55 54 55 59 64 66 69 70 70 70 71 71 74 78 78 77 76 75 76 76 74 74 74 75 74 74 74 74 74 74 74 73 72 73 73 72 73 73
61 62 47 43 41 40 46 51 52 52 53 56 55 56 59 66 68 69 70 70 69 71 70 72 77 78 77 75 75 75 75 75 74 74 74 74 74 73 74 74 73 74 73 72 72 73 73 73 73
62 60 51 48 42 39 42 51 51 50 53 53 55 53 61 65 68 71 71 71 70 71 71 73 74 75 76 75 75 74 75 75 75 75 75 74 74 73 73 74 73 74 74 72 72 73 73 73 73
63 60 50 44 35 36 43 49 50 51 52 57 57 51 56 62 69 70 71 71 71 71 71 73 74 74 74 74 76 76 76 75 75 75 74 74 74 74 74 74 74 73 73 72 72 73 73 73 72
64 54 45 39 38 36 42 43 48 54 55 56 57 56 58 65 68 68 68 69 70 71 71 72 73 75 75 74 74 76 76 75 75 75 75 74 71 72 72 73 73 73 73 72 72 72 73 72 72
60 53 46 47 44 40 37 39 36 52 54 56 57 59 63 66 66 65 65 65 67 68 70 71 72 72 74 72 75 75 73 72 73 74 73 72 72 73 71 73 73 73 73 73 73 74 73 73 67
58 51 51 49 47 45 35 27 29 46 51 53 55 58 63 65 65 64 63 63 65 67 69 71 72 73 73 72 74 72 73 74 74 75 74 74 74 73 72 73 72 73 73 73 73 72 70 68 68
54 55 53 49 42 33 23 27 39 45 44 52 56 59 62 63 64 64 62 62 64 66 68 70 72 73 73 73 72 73 72 73 74 73 75 75 73 73 73 73 72 73 76 74 74 70 72 72 72
53 50 45 46 39 26 24 28 34 45 45 52 57 61 61 62 63 64 64 62 63 65 67 69 72 73 73 74 73 74 73 72 73 73 75 73 73 74 72 74 71 72 71 76 75 74 71 71 72
43 44 42 38 25 26 26 35 44 43 45 51 59 60 60 61 62 64 65 64 64 66 67 69 71 72 73 73 75 74 74 73 73 72 74 75 74 73 73 71 70 71 71 72 74 74 73 71 70
42 38 37 31 27 27 32 26 38 42 51 50 57 59 60 61 62 64 65 66 66 67 67 69 71 72 72 73 73 73 72 73 71 72 75 74 74 74 74 72 71 70 73 75 75 74 73 71 70
32 24 30 27 24 22 24 27 26 34 49 48 53 56 59 62 62 64 65 66 67 68 69 70 69 71 72 72 73 71 72 71 72 72 73 74 74 74 74 72 70 71 72 74 74 76 71 70 70
29 28 31 29 22 21 21 21 22 24 24 31 48 56 57 61 63 65 65 66 67 69 70 71 71 70 72 73 72 72 73 72 72 72 73 74 74 74 73 71 70 73 71 72 71 75 75 70 70
20 25 26 28 26 21 20 22 22 20 22 27 44 56 56 58 60 63 65 66 67 69 71 72 72 73 73 72 73 71 72 73 73 73 73 74 74 74 73 71 72 72 70 70 71 72 71 72 73
24 29 29 26 26 24 26 24 22 24 22 23 44 55 56 57 59 61 63 65 67 69 71 72 73 75 73 71 71 71 71 71 72 73 73 74 74 73 73 71 71 71 69 70 72 73 73 70 71
30 29 30 27 22 21 21 25 26 25 24 24 37 52 56 56 59 61 63 64 66 68 71 72 74 74 74 72 73 71 71 71 72 73 73 74 74 74 72 72 71 71 69 71 71 71 71 72 73
33 32 31 29 29 26 26 22 24 23 24 25 31 47 53 56 58 61 63 65 64 67 71 72 74 74 74 74 73 72 72 72 71 71 72 72 72 73 74 74 73 73 72 70 71 71 71 69 71
29 33 32 30 30 26 21 18 25 24 25 24 23 35 50 55 58 61 62 64 65 66 67 71 73 74 74 75 73 74 69 69 70 73 72 72 72 72 72 72 72 72 72 72 72 72 73 73 70
33 34 33 31 29 23 24 15 20 27 24 24 22 24 31 49 56 58 60 64 65 65 67 70 74 74 74 74 74 72 72 74 73 71 73 74 73 73 72 73 73 73 72 72 72 71 71 73 71
28 26 23 20 19 20 22 17 17 20 27 24 25 25 27 29 44 56 60 63 65 65 66 70 73 74 75 74 74 74 73 72 71 72 71 71 71 72 74 74 74 74 73 72 71 72 72 71 70
28 23 18 17 16 16 21 17 22 24 25 27 25 26 28 32 34 43 57 63 65 65 67 70 73 73 73 73 73 73 74 74 73 72 72 71 70 72 74 73 73 72 73 72 72 71 72 72 71
23 21 17 16 15 16 22 17 19 28 26 27 27 27 31 41 37 42 48 60 64 65 68 69 72 73 73 73 74 74 74 72 72 73 71 70 69 71 74 73 73 73 72 72 72 70 70 72 70
20 19 17 21 20 14 15 21 24 28 27 28 40 55 55 50 44 48 54 59 63 66 68 69 71 73 73 73 73 74 74 74 72 73 71 68 71 71 72 73 73 72 72 72 72 69 71 71 71
23 20 15 20 23 21 18 22 20 29 29 36 54 62 62 60 56 58 59 62 64 65 68 69 71 72 73 73 73 73 74 74 72 71 70 70 72 73 72 72 72 72 71 71 71 71 70 69 69
18 17 19 19 22 17 18 18 32 33 42 51 62 65 64 64 61 62 63 64 65 67 68 70 71 72 73 73 74 74 73 72 70 69 69 71 73 73 72 72 71 71 71 72 72 71 71 70 69
23 23 21 20 27 20 21 19 32 47 57 63 63 65 65 66 66 67 67 68 68 69 70 71 72 72 72 73 74 73 71 69 68 67 67 73 73 72 72 71 71 70 70 70 70 68 67 68 69

GFSSGP_sfc_dewp_096.txt.gz
Dewpoint
71 68 70 68 59 50 32 38 38 39 37 48 50 48 48 50 46 51 63 64 64 65 68 72 75 75 75 75 76 75 75 75 75 75 75 75 75 74 74 74 74 74 74 74 74 74 74 74 74
67 69 69 65 53 28 31 38 39 45 45 49 50 50 48 50 57 62 63 65 65 64 67 68 75 75 76 76 76 76 75 74 74 74 74 74 74 74 73 74 74 74 74 73 74 74 73 73 73
67 69 64 58 42 33 34 38 44 49 50 47 47 50 50 54 61 60 63 65 65 66 66 70 76 75 75 76 76 76 74 74 75 74 75 74 74 74 73 74 74 74 73 72 73 72 72 72 73
67 67 64 52 37 41 38 39 46 49 52 51 47 48 55 61 61 61 65 65 66 66 65 74 76 76 75 75 75 75 75 73 74 74 74 74 74 74 74 74 74 74 73 71 72 73 72 73 74
65 62 50 39 37 38 41 45 47 46 48 49 47 48 53 61 62 64 65 65 66 66 66 72 76 76 76 75 75 74 75 74 74 74 74 74 74 73 73 74 74 74 73 72 73 73 73 72 72
61 60 42 38 37 38 41 42 47 47 50 52 48 49 54 63 64 65 65 66 65 65 66 71 76 77 76 75 75 75 75 74 74 74 74 74 75 73 74 74 74 73 72 72 74 72 73 73 73
61 56 41 36 34 36 37 41 42 44 48 48 50 47 56 61 65 66 66 66 66 66 67 71 73 75 76 75 75 75 75 75 74 74 74 74 74 74 74 74 74 74 72 72 73 74 74 73 73
61 57 41 36 31 32 35 35 41 41 46 53 52 46 50 59 65 67 68 67 67 66 67 69 72 73 74 74 76 75 76 75 75 75 75 74 74 74 74 74 74 74 73 72 73 74 74 73 73
62 52 40 35 32 33 33 32 33 45 46 54 54 51 52 60 65 66 68 68 67 67 68 68 69 72 74 74 73 75 75 75 75 75 74 74 71 72 73 73 74 74 73 72 72 73 73 73 72
57 46 41 38 38 38 37 34 29 35 46 52 54 55 56 63 64 63 65 64 65 66 66 67 68 70 72 69 74 73 72 74 71 74 74 70 70 70 69 72 74 74 74 72 72 72 73 72 66
50 47 43 43 43 41 37 30 29 30 40 48 52 57 59 61 63 61 62 62 64 65 66 67 68 70 70 69 69 70 71 71 72 75 72 71 70 71 68 70 70 71 73 70 70 71 67 66 63
47 44 46 44 43 41 35 31 29 32 37 45 49 56 60 59 60 60 61 61 62 65 65 67 69 71 70 69 69 69 68 70 73 71 74 72 70 70 70 68 72 74 77 73 70 65 65 65 66
39 39 37 40 39 39 32 30 32 34 35 45 50 57 59 58 58 60 60 61 63 65 66 68 70 72 72 72 70 70 68 69 70 71 73 71 69 71 70 70 69 69 70 77 74 70 66 68 67
27 28 32 36 35 37 33 31 31 34 39 44 52 55 57 58 56 59 61 61 63 65 67 68 71 72 73 73 73 72 70 69 70 69 70 74 71 73 70 70 68 73 72 76 70 74 68 67 65
31 29 24 22 25 30 30 29 29 33 41 44 50 53 56 58 57 58 61 63 62 64 66 69 71 72 73 74 73 72 70 70 70 68 73 74 74 75 76 70 68 69 72 76 73 74 70 68 66
27 28 25 17 20 24 25 27 30 28 30 37 34 42 51 57 57 58 61 64 64 65 68 70 69 71 72 73 72 70 69 69 69 68 70 74 75 75 74 73 68 68 70 74 71 74 70 67 66
21 19 18 22 21 24 24 24 27 25 23 26 26 31 45 54 59 60 60 62 65 67 69 71 72 70 72 73 72 72 73 70 68 69 69 73 73 73 73 72 68 72 69 69 72 74 70 67 66
17 18 18 20 21 22 22 20 21 23 23 23 25 27 39 52 58 60 61 61 64 68 70 72 72 73 74 72 73 70 68 69 69 70 70 73 73 74 73 77 74 71 68 67 67 70 69 68 67
19 19 19 20 23 25 25 25 22 23 19 20 25 27 36 52 56 60 61 63 64 67 70 72 73 75 73 71 70 68 66 68 69 70 73 74 73 74 76 71 75 74 70 69 71 71 71 69 69
21 20 17 20 24 27 25 22 22 24 23 20 22 25 32 48 54 60 62 63 64 67 70 73 74 75 75 72 73 70 69 68 69 70 74 73 73 74 73 74 74 74 76 71 71 73 69 67 68
18 20 21 19 22 25 26 26 24 21 20 21 22 25 32 48 54 59 61 64 64 66 70 73 75 76 76 76 73 73 72 71 70 72 72 74 73 74 75 74 73 74 72 76 72 73 72 68 70
20 18 19 23 22 21 22 20 27 23 22 21 22 20 28 45 54 58 61 63 64 65 69 74 76 77 76 77 75 77 70 69 69 71 71 72 74 74 74 74 73 74 76 75 76 75 75 75 73
19 19 20 25 25 25 23 23 24 22 22 21 20 20 24 40 50 55 59 62 63 65 67 73 76 77 78 78 77 73 74 69 69 73 73 75 75 74 72 73 73 73 72 74 74 73 73 74 74
21 23 27 27 23 21 25 21 21 20 22 22 21 21 20 20 36 51 57 62 64 63 65 69 75 78 78 77 76 78 77 74 70 72 72 77 75 74 74 73 74 74 74 74 75 73 73 72 74
18 21 19 17 15 16 22 21 22 21 20 22 25 25 23 24 27 38 51 58 63 64 66 67 74 76 75 75 75 75 75 76 75 74 78 71 73 73 75 75 74 75 75 75 75 75 72 72 73
18 19 16 17 17 24 30 21 20 23 21 25 25 27 32 31 29 35 34 47 60 63 68 68 73 75 75 74 75 76 76 73 72 74 74 68 68 67 70 74 74 74 73 73 75 75 71 72 74
21 18 18 18 21 17 23 28 24 21 23 28 35 45 52 57 57 56 50 43 55 62 65 68 72 74 74 74 75 76 76 76 73 75 75 70 71 66 70 73 72 74 73 73 74 75 71 73 74
18 20 18 19 23 21 20 24 22 27 26 31 40 51 60 62 61 57 53 51 55 61 65 67 70 73 73 73 74 75 75 76 75 76 74 71 70 72 71 73 73 73 73 73 73 75 72 72 75
20 18 19 15 22 23 17 18 27 29 30 40 49 59 63 64 63 60 58 59 61 62 64 67 69 72 73 74 74 75 74 75 76 74 72 70 71 73 73 73 72 72 72 72 73 73 71 70 71
26 26 25 19 25 22 21 18 20 32 37 54 56 62 66 65 66 65 63 64 63 63 66 67 70 72 73 74 75 74 74 75 74 71 70 70 72 73 73 72 71 70 70 71 71 70 69 69 69

GFSSGP_sfc_dewp_102.txt.gz
Dewpoint
71 68 68 67 62 60 30 32 37 38 39 40 40 40 43 50 52 53 57 63 65 67 70 73 77 77 76 77 77 76 76 75 75 75 74 74 75 75 74 74 74 74 74 74 74 74 74 74 74
66 66 67 65 61 35 32 35 39 41 41 41 41 41 45 51 53 55 58 65 65 67 70 71 76 77 76 77 77 76 75 75 75 75 75 75 75 74 73 74 74 74 74 74 74 74 74 75 74
67 67 63 63 49 31 32 38 41 41 41 41 42 44 48 51 55 57 60 63 65 67 66 72 77 77 75 76 76 76 76 75 75 75 75 75 74 74 73 74 74 74 74 74 74 74 74 74 74
67 66 65 60 47 31 35 37 34 36 39 40 42 49 50 54 55 58 59 61 65 64 66 75 77 76 75 76 76 76 75 75 75 75 74 74 74 73 74 74 74 74 73 74 73 73 72 73 74
64 61 57 42 36 32 35 38 37 38 41 41 44 48 51 56 59 59 59 60 61 64 70 72 77 77 77 77 76 75 75 75 74 75 74 74 74 73 74 74 74 73 72 74 74 72 74 74 74
60 63 54 51 37 32 34 36 38 38 41 42 45 50 53 58 58 58 59 60 64 68 68 71 76 77 77 76 75 74 74 74 74 74 74 74 74 74 74 74 74 74 72 74 74 73 74 74 73
59 56 54 55 45 31 33 35 33 37 38 37 44 51 54 56 58 59 62 60 68 68 68 71 72 75 75 75 75 75 74 74 74 74 74 74 74 74 74 75 74 74 73 74 74 74 73 72 72
59 55 54 53 47 42 30 32 35 39 40 39 42 48 53 56 58 59 61 62 67 67 68 70 72 73 74 73 76 76 76 74 74 74 74 75 74 74 74 76 75 74 73 74 74 74 74 74 74
55 51 51 51 48 50 36 31 30 35 45 44 41 46 53 58 58 58 60 61 63 68 68 69 71 73 74 74 74 76 75 75 74 75 75 74 71 73 73 75 75 74 72 73 74 74 75 75 73
47 44 52 55 53 56 44 33 30 28 44 46 45 47 54 57 59 58 60 59 61 61 66 68 70 73 73 69 74 73 73 72 73 74 75 73 73 75 71 73 75 75 74 72 74 75 75 74 70
41 40 40 50 52 48 37 37 35 29 31 51 58 50 55 56 60 60 60 61 62 63 63 67 70 73 71 71 73 72 72 72 73 75 76 75 74 74 71 73 72 74 74 69 72 73 72 71 69
32 33 34 33 34 34 34 36 35 31 31 45 58 59 55 55 57 60 61 62 62 63 63 64 72 73 72 72 71 71 70 71 74 74 76 77 73 73 74 74 72 75 75 73 69 69 70 68 69
29 26 24 24 24 22 27 31 35 34 30 34 57 56 54 54 56 59 61 62 63 64 65 65 72 73 73 74 72 72 69 71 72 75 75 75 73 71 74 74 74 73 73 74 71 69 68 68 69
31 27 23 20 20 19 17 22 32 34 32 32 41 54 53 55 55 57 61 62 63 65 66 68 71 74 73 75 77 74 75 70 74 73 74 76 77 73 74 72 73 73 74 74 73 73 72 71 68
29 26 27 26 24 23 21 14 15 29 33 31 41 47 55 57 57 57 59 62 64 65 66 68 71 73 75 76 77 77 76 73 72 74 74 75 76 77 77 74 74 73 74 74 74 74 74 74 70
27 22 19 21 22 17 18 21 14 22 30 35 35 43 51 56 56 58 59 62 65 66 68 70 68 72 74 75 75 75 73 74 74 73 74 75 77 77 77 76 74 73 74 71 72 73 73 74 72
17 14 15 17 19 17 17 19 16 18 28 36 38 39 43 50 57 60 59 60 62 67 70 71 72 72 73 75 74 75 75 74 71 73 72 76 75 75 76 73 74 72 72 73 73 73 73 72 73
14 14 14 16 16 15 16 16 16 19 21 29 31 33 37 36 47 58 59 58 62 68 71 72 73 74 75 74 75 72 72 72 71 70 70 75 74 75 75 74 75 72 71 72 73 72 73 72 72
17 17 17 19 19 18 18 21 20 22 20 20 27 33 35 35 35 55 59 60 61 67 71 73 74 75 74 73 72 72 70 70 70 70 74 75 74 74 75 73 75 70 69 72 73 73 71 70 72
18 17 16 15 15 15 17 19 19 18 22 23 23 27 26 23 34 46 60 61 62 67 71 73 74 75 75 74 73 73 71 70 70 70 75 75 74 75 74 75 75 74 73 72 73 72 71 71 72
12 12 14 13 16 16 17 18 22 20 19 23 25 28 26 28 29 41 61 61 62 65 70 72 74 75 75 75 74 74 74 72 70 70 74 75 74 75 75 75 75 74 75 73 73 74 72 70 72
11 10 12 14 14 13 17 16 29 21 23 24 27 24 24 29 32 40 61 62 62 65 70 73 75 76 76 76 74 74 71 69 68 69 71 73 75 75 75 75 75 75 75 73 73 74 74 72 71
13 13 13 13 14 14 16 13 21 29 31 32 33 32 23 28 27 29 60 62 62 65 68 73 75 76 76 76 75 74 72 71 71 70 72 76 76 75 74 75 74 74 75 75 73 75 74 73 71
14 15 16 17 16 16 20 24 23 27 34 32 34 34 33 25 27 31 61 64 64 65 68 72 75 76 77 76 76 75 74 73 71 71 73 75 74 75 76 73 73 72 73 73 75 75 75 73 73
13 13 13 16 13 13 19 20 27 33 29 32 34 34 32 28 32 33 60 64 65 65 67 70 75 76 77 76 75 76 75 75 76 77 75 74 73 75 75 74 72 71 73 74 75 75 75 73 72
16 16 14 20 14 13 21 22 25 31 32 35 37 34 32 35 48 47 60 63 65 65 67 70 74 76 77 77 76 77 76 74 75 77 74 74 73 74 76 73 73 74 74 74 75 75 74 74 72
16 16 15 18 17 13 18 27 29 30 28 32 33 35 46 54 50 54 56 62 64 65 67 69 72 76 77 77 77 75 77 77 75 77 77 74 76 73 73 73 73 73 74 75 76 75 74 74 74
18 18 14 15 21 20 18 29 24 34 37 35 39 45 51 54 54 57 56 56 63 64 66 68 72 76 76 76 77 76 77 77 77 77 76 75 76 75 73 72 73 74 75 75 75 74 74 73 73
24 25 25 27 29 25 24 23 39 43 48 53 52 51 53 55 57 59 68 64 58 60 64 68 70 76 76 77 77 77 76 77 77 77 76 77 75 75 74 73 73 74 74 74 75 74 73 73 72
24 34 33 30 38 31 33 30 41 47 49 50 54 55 55 55 53 68 70 70 70 61 62 67 70 75 76 77 76 76 77 77 76 77 77 76 74 74 75 75 75 74 73 74 73 72 71 72 71

GFSSGP_sfc_dewp_105.txt.gz
Dewpoint
73 71 69 67 62 61 36 37 40 40 40 41 43 50 52 53 49 51 62 66 70 72 73 75 77 77 76 77 77 76 76 75 75 75 75 74 75 75 75 75 74 74 74 74 74 74 74 74 74
67 66 66 67 60 48 35 39 39 40 41 41 48 51 52 53 58 63 64 68 69 71 73 74 77 77 76 77 77 77 75 75 75 75 74 75 75 74 74 74 75 74 74 74 74 74 75 75 74
67 66 66 64 60 34 36 40 39 40 41 46 47 49 53 54 60 61 65 67 69 70 71 74 77 77 76 76 77 76 76 75 75 75 75 75 74 74 74 74 75 75 75 74 74 74 75 74 74
67 69 66 59 53 46 36 37 39 39 43 50 50 51 54 57 59 63 65 68 69 69 72 76 77 77 76 76 77 77 76 76 76 75 75 75 74 74 75 74 74 74 75 74 74 74 73 74 73
65 63 54 52 49 53 47 37 39 40 45 49 51 55 56 58 60 64 65 66 66 69 73 75 77 77 77 76 76 75 75 75 75 74 74 74 74 74 74 74 74 73 74 73 73 72 73 74 73
63 62 53 52 50 51 50 40 41 42 45 50 51 54 57 58 58 63 65 64 65 71 73 74 76 77 77 76 76 75 75 75 74 75 75 74 74 74 74 74 74 72 73 74 74 74 74 74 73
55 57 52 52 52 47 47 48 40 39 41 50 53 53 56 57 59 60 63 66 69 70 71 72 74 74 76 75 75 74 74 74 75 75 75 75 75 75 74 75 75 73 73 74 74 75 74 73 73
62 59 54 52 47 45 47 49 46 38 38 53 54 53 54 57 59 61 67 68 68 69 71 73 73 73 73 73 76 75 75 74 74 75 74 74 74 74 75 76 76 73 74 74 74 73 73 73 73
59 56 54 52 49 49 47 46 48 40 41 52 53 54 56 57 59 60 66 67 67 68 70 71 72 73 73 73 74 76 75 74 74 74 74 75 72 73 73 74 75 73 73 74 73 74 75 75 74
53 51 53 54 53 53 49 47 46 43 49 49 52 55 57 57 58 59 61 66 66 67 69 70 71 72 72 72 72 74 73 74 72 74 73 73 72 73 73 74 74 74 72 74 75 74 75 74 72
41 38 49 50 51 48 47 46 47 40 45 49 53 55 57 57 57 59 59 65 66 66 68 70 70 71 71 70 72 72 73 73 72 73 74 73 73 73 73 73 74 73 73 70 73 74 73 72 71
35 35 31 41 52 51 49 50 46 42 43 48 49 54 57 57 58 59 59 59 64 66 67 69 71 71 71 72 72 71 71 72 72 73 73 73 72 72 72 73 72 73 73 70 72 73 72 71 70
32 32 31 28 37 47 39 25 20 21 50 48 48 50 55 57 58 59 60 61 61 62 66 69 71 71 70 72 71 70 70 71 72 72 73 73 72 70 72 72 73 73 73 72 69 69 70 69 68
32 30 30 28 26 25 23 20 19 19 32 50 50 50 54 57 59 60 60 61 61 62 64 69 71 71 70 71 71 70 70 70 72 73 72 73 73 70 71 71 72 72 72 72 69 70 68 67 66
31 30 30 25 23 21 22 21 23 22 19 47 52 53 55 56 58 60 61 61 61 62 64 70 71 71 70 69 72 71 69 73 73 73 73 73 73 73 73 70 72 71 72 72 72 71 72 71 70
30 28 22 19 18 18 19 20 21 24 18 29 54 54 55 56 56 59 61 62 62 63 64 71 70 70 69 69 73 72 72 71 70 70 71 66 68 72 72 72 71 72 72 71 72 71 70 70 70
23 19 17 16 18 18 20 19 23 22 16 34 44 51 55 55 56 58 60 62 63 63 65 68 70 70 72 73 73 73 70 71 70 71 68 69 67 73 73 72 72 71 72 70 71 70 70 69 69
18 17 16 16 17 17 18 19 20 21 20 22 37 37 53 54 56 57 59 61 63 64 65 68 69 70 72 73 73 72 72 71 71 71 70 71 71 73 72 73 71 71 70 70 70 70 71 70 70
16 15 16 18 18 16 16 17 19 21 20 22 24 37 41 52 56 57 58 60 63 64 65 67 68 71 70 72 72 70 69 70 70 70 70 71 72 73 73 72 70 70 68 67 70 70 69 70 70
21 19 17 18 19 15 15 17 18 19 21 22 23 27 30 34 38 57 57 59 63 64 65 67 68 71 71 71 70 70 68 70 69 69 71 72 72 73 73 73 73 70 68 67 70 70 69 69 70
12 13 12 12 16 17 17 18 21 20 19 18 21 25 28 30 26 55 57 58 62 65 66 68 69 72 71 71 71 71 71 70 69 68 70 73 72 73 72 73 73 72 71 70 70 70 69 68 69
11 15 13 13 15 14 16 11 17 22 29 30 30 33 33 33 33 34 57 57 61 65 67 68 70 72 72 72 71 70 69 67 67 67 69 73 74 73 73 72 73 73 72 71 71 71 70 69 67
13 14 17 17 16 15 15 15 19 31 27 30 32 30 33 35 33 34 55 58 60 65 68 69 71 72 72 72 72 70 68 68 69 67 68 72 73 73 74 73 73 72 72 71 70 70 70 70 68
15 12 14 16 14 14 15 21 23 24 27 32 32 32 37 41 46 48 50 59 60 64 68 70 71 71 73 72 72 71 70 69 67 67 66 72 72 73 74 74 73 71 71 71 71 71 70 71 70
17 15 16 19 18 17 21 20 26 32 33 36 34 37 41 48 49 49 55 59 60 63 68 70 71 72 73 72 72 72 71 70 68 68 69 69 72 73 73 71 71 71 70 70 71 72 71 71 70
21 15 17 15 16 18 19 19 32 46 49 46 47 48 47 48 49 53 58 62 60 63 68 70 71 71 73 73 72 73 72 71 72 72 70 71 71 72 73 72 71 69 69 68 70 72 72 71 71
22 20 18 13 14 18 19 27 39 49 51 49 49 49 50 49 49 57 59 63 65 64 66 70 71 72 73 73 72 72 73 72 70 73 73 72 72 72 72 71 71 70 70 71 72 72 72 72 70
24 25 21 23 23 24 25 32 39 47 50 50 49 50 53 52 51 56 59 61 62 62 64 68 72 72 73 74 73 72 74 73 71 71 73 72 72 72 71 70 71 71 72 73 73 72 72 71 71
24 28 33 30 31 27 27 31 45 50 50 48 51 52 54 55 54 57 57 57 61 63 63 68 70 73 74 74 74 73 71 75 75 72 74 73 72 71 70 70 71 71 71 73 72 72 71 71 70
25 34 33 32 30 32 32 32 44 47 50 53 53 55 56 56 55 58 60 61 62 60 69 67 69 72 74 75 74 74 73 74 74 75 75 73 74 71 70 70 70 71 72 72 72 72 72 70 70

GFSSGP_sfc_dewp_108.txt.gz
Dewpoint
74 72 71 67 62 60 50 39 40 39 40 48 52 52 51 53 48 47 64 68 71 70 73 75 77 76 75 76 77 75 75 75 75 75 75 75 75 75 75 75 75 74 73 73 73 74 74 75 74
72 68 69 67 59 51 37 40 39 41 49 52 52 54 54 57 63 63 66 70 71 72 74 74 77 77 77 77 76 76 75 75 75 75 75 75 75 75 75 74 74 75 74 74 74 74 74 75 74
68 68 66 63 57 51 42 40 40 44 47 48 48 54 56 61 63 64 68 70 72 73 73 74 77 77 76 77 77 76 76 74 74 75 75 75 74 75 75 75 75 74 75 75 75 74 75 74 73
66 70 64 55 51 51 48 49 46 48 49 52 52 54 57 63 63 66 69 70 71 72 74 76 78 76 76 76 77 76 76 75 75 75 75 74 74 75 74 75 75 75 74 74 75 75 74 74 73
64 62 54 52 49 48 49 48 46 48 50 53 55 55 56 63 65 67 69 70 69 72 73 75 77 77 77 77 76 76 76 75 75 75 75 75 74 75 74 75 74 75 75 74 74 74 74 73 73
59 60 52 51 50 50 48 48 47 47 52 56 55 56 57 64 65 66 68 68 69 71 73 74 76 77 77 76 76 76 75 75 74 74 74 75 74 74 74 74 73 74 74 74 74 72 73 74 72
55 56 53 52 50 48 46 48 48 48 51 54 57 55 58 63 64 67 67 67 70 72 73 73 74 74 75 75 75 75 74 74 75 75 74 74 74 74 74 75 74 73 74 73 73 74 74 74 73
61 59 53 52 50 48 46 50 50 47 50 55 57 55 55 61 64 66 65 67 70 71 72 73 74 74 74 73 75 75 76 75 75 75 75 75 75 74 74 75 75 72 73 74 74 74 74 74 73
62 55 52 52 50 45 45 47 46 53 53 54 54 56 57 59 63 63 66 68 70 70 71 73 73 73 73 73 73 75 74 74 75 75 74 74 72 73 73 75 75 72 74 74 74 73 73 73 72
58 55 53 54 52 49 45 42 46 52 51 50 55 56 57 63 64 65 66 66 68 68 71 72 72 72 73 73 73 74 72 72 72 73 72 73 72 73 74 74 75 73 74 74 73 75 73 73 72
51 52 53 53 52 49 46 46 47 52 51 52 56 56 57 60 65 66 65 66 66 68 70 71 72 72 72 71 72 73 73 73 72 73 73 73 72 73 73 73 73 72 72 72 74 74 73 72 72
39 37 44 47 52 51 49 49 48 47 47 51 57 56 57 57 60 65 66 66 66 68 68 71 72 71 71 71 72 72 73 73 72 73 73 72 72 72 72 73 73 73 72 70 72 73 73 72 72
33 32 32 38 48 51 51 50 48 38 36 54 57 56 57 57 58 60 66 66 66 67 68 69 70 70 70 71 71 71 72 72 72 73 73 73 71 70 71 72 73 73 72 70 71 71 72 71 70
33 32 32 31 32 33 41 43 31 24 45 50 56 56 56 57 58 58 61 66 66 67 68 69 70 70 70 71 70 70 70 71 72 73 72 73 72 69 70 71 72 72 72 72 69 70 70 69 68
32 30 29 28 27 24 20 18 18 24 37 47 52 56 57 57 58 59 59 61 66 66 67 69 70 70 70 71 70 69 70 71 72 73 72 72 72 70 70 71 71 72 72 72 70 69 69 68 67
23 27 23 23 23 20 19 17 19 22 24 42 49 51 56 58 58 59 60 60 61 64 67 69 70 70 70 71 70 69 70 71 71 72 73 72 72 72 71 71 71 71 72 71 71 69 69 70 69
21 18 19 19 21 19 20 18 23 23 21 29 51 50 55 57 59 60 60 60 60 62 67 69 70 70 70 70 71 70 70 71 66 68 70 70 69 71 72 71 71 71 72 71 70 70 69 69 69
17 18 18 18 18 18 18 17 20 20 21 45 50 51 54 55 57 59 61 61 61 62 69 70 70 70 70 69 72 71 71 70 69 67 69 68 65 69 72 71 71 70 70 70 69 69 69 68 68
19 18 17 17 18 20 17 18 19 20 19 22 42 48 54 54 56 57 60 61 61 62 67 70 70 69 69 70 70 70 69 70 69 69 69 69 67 69 72 71 71 70 69 69 69 69 68 69 69
21 21 20 19 17 18 15 16 19 21 20 20 23 27 50 54 55 56 59 61 62 62 63 69 69 69 69 69 69 69 68 70 70 70 70 70 69 70 72 71 71 69 68 67 68 69 68 68 69
20 20 13 14 17 15 18 15 16 17 22 29 30 35 31 35 37 55 57 60 62 62 63 66 68 69 69 69 69 70 69 69 69 68 69 71 71 72 72 71 71 70 69 66 66 69 68 67 68
17 15 17 13 15 12 15 13 17 17 24 28 31 30 33 44 48 50 56 59 61 63 63 65 67 69 69 70 69 69 67 66 67 67 67 72 71 72 72 72 72 72 70 69 68 69 70 68 67
12 14 13 16 13 14 14 14 17 25 24 25 30 33 44 47 48 52 55 56 59 62 64 65 66 69 69 70 69 69 68 67 67 68 67 70 72 72 72 72 72 72 72 71 70 70 70 69 68
16 16 15 19 15 12 13 15 22 41 41 32 40 42 43 47 50 53 55 59 58 60 64 65 66 69 70 70 70 69 69 68 67 67 67 70 71 72 73 72 72 72 72 71 71 70 70 70 69
19 15 14 13 14 15 19 19 37 45 47 47 47 47 48 47 53 56 60 63 63 60 63 66 67 68 70 70 71 70 68 68 68 67 66 68 70 72 73 73 72 71 71 71 71 70 69 70 70
21 16 14 11 14 14 17 16 36 48 51 50 49 48 49 50 53 56 60 62 62 61 66 68 68 68 71 71 70 70 70 69 69 68 67 67 68 70 72 73 73 71 70 70 69 69 69 70 70
24 23 22 16 16 17 20 32 41 47 47 48 47 50 51 53 53 56 60 62 63 63 61 65 68 69 71 72 71 71 70 70 70 69 68 68 68 71 72 72 71 70 69 67 67 68 69 70 70
25 26 27 27 23 23 26 31 30 42 46 48 48 51 54 55 56 57 58 59 62 63 64 63 66 66 70 73 72 71 71 71 70 72 72 70 71 71 72 71 70 69 68 68 68 68 70 70 70
23 23 30 29 29 25 26 29 38 46 48 48 51 54 56 57 57 59 60 61 63 63 61 61 65 64 67 73 73 71 71 72 71 69 73 72 71 72 71 71 70 70 70 70 70 71 71 70 70
25 28 32 28 27 30 30 30 46 49 50 52 53 54 61 59 63 62 63 63 61 61 62 64 64 64 67 73 74 73 72 74 72 71 71 72 72 72 71 70 70 70 70 71 71 71 71 70 69